Dewpoint
66 67 68 70 70 70 70 70 70 71 71 70 71 69 70 71 72 72 72 71 71 70 70 70 69 69 69 68 66 63 63 63 60 61 60 58 57 57 58 59 61 61 63
67 68 68 69 71 71 71 71 71 70 71 72 71 71 71 72 73 73 73 72 70 70 69 68 67 70 68 67 65 64 63 61 61 57 58 56 56 56 56 56 59 59 61
67 68 70 70 71 72 71 71 71 71 71 72 72 72 72 73 73 74 72 71 71 70 69 66 66 67 69 66 66 64 63 61 59 57 55 56 55 56 55 55 55 55 60
69 69 70 70 70 71 72 72 72 72 71 71 71 71 72 73 74 74 72 70 71 70 68 66 67 68 69 67 65 64 61 59 57 56 55 54 55 55 55 53 53 54 54
69 70 70 70 71 71 71 72 72 72 72 72 71 72 72 74 74 72 71 71 69 68 67 67 67 70 69 67 65 61 59 57 57 55 55 54 54 54 53 54 52 52 52
71 70 70 70 69 70 71 71 72 72 72 72 72 72 73 74 67 67 69 71 69 68 66 65 66 68 67 66 65 63 61 59 56 56 55 54 53 54 55 54 53 51 50
69 69 69 69 70 72 71 71 71 72 72 72 72 73 73 72 64 64 67 70 69 67 66 65 65 66 66 64 64 63 62 62 60 58 56 56 55 56 56 54 53 52 52
64 66 67 67 67 71 72 71 71 71 72 72 72 73 73 70 62 62 65 69 67 67 66 65 64 63 64 62 61 60 60 59 60 60 59 58 58 58 58 57 56 54 55
61 63 66 66 65 68 69 70 71 72 71 72 73 73 72 67 60 60 64 69 66 66 66 65 63 62 61 60 60 59 57 57 59 59 60 59 59 59 59 58 56 54 52
60 62 65 65 65 66 67 69 70 71 73 73 73 71 65 65 58 58 62 68 65 64 64 65 63 63 59 59 60 58 57 57 58 59 58 58 59 59 60 58 57 55 53
61 62 63 63 63 65 66 67 67 70 70 70 65 63 63 63 62 60 59 65 65 63 63 64 64 59 57 56 57 58 57 57 59 58 58 58 59 58 59 58 58 57 55
59 60 61 62 63 66 63 63 65 64 65 65 62 62 63 63 61 60 59 59 63 64 63 64 62 56 55 55 57 57 55 58 59 58 57 57 57 57 58 59 58 59 59
58 58 60 62 62 63 62 62 63 64 64 64 61 61 62 63 62 58 59 60 58 66 64 61 58 54 53 55 55 55 55 58 58 57 57 56 56 58 58 59 59 59 59
56 57 59 61 61 62 62 60 61 63 63 63 62 61 61 61 61 62 63 62 60 62 61 59 58 58 57 57 57 57 59 58 58 58 57 57 57 56 57 58 58 59 57
56 57 58 60 60 61 62 60 59 60 62 62 63 62 61 61 61 54 56 61 62 62 57 56 55 56 57 55 55 58 59 58 58 58 58 58 57 57 56 57 58 58 57
55 55 57 59 60 61 60 55 52 51 48 46 45 52 62 55 54 51 50 50 49 50 55 55 55 56 56 55 54 55 56 58 58 59 58 59 59 58 57 57 57 58 57
54 56 58 57 59 60 57 56 57 54 48 46 44 44 45 53 48 44 46 46 47 52 55 55 56 57 57 56 55 57 57 58 58 57 58 58 59 58 57 57 57 57 57
55 54 57 58 59 59 59 57 58 56 55 55 47 44 44 45 44 45 45 49 54 56 57 56 57 58 60 59 58 57 56 56 58 59 57 58 58 58 57 57 57 57 58
56 57 58 58 59 58 60 58 58 58 57 55 52 48 44 42 42 43 47 61 59 60 59 57 58 58 58 59 59 58 56 55 58 57 57 55 56 59 58 58 57 54 56
56 56 57 58 58 57 59 60 59 59 56 54 53 52 50 50 54 54 57 59 59 59 59 58 58 58 58 58 57 56 55 55 55 55 55 55 54 57 56 56 56 58 58
56 56 57 57 57 57 58 59 58 58 55 54 53 52 48 53 54 57 57 57 58 59 59 58 58 58 57 57 56 55 54 53 53 53 53 53 53 53 53 54 55 54 54
56 56 56 56 57 56 56 59 58 58 56 54 53 49 46 54 54 55 55 55 55 57 57 56 55 56 55 55 55 53 51 50 50 50 50 50 51 52 51 51 51 51 51
55 55 57 57 56 55 55 58 58 57 55 55 53 51 52 53 53 54 54 54 54 53 53 53 52 50 50 50 50 50 47 46 47 47 46 46 46 46 46 47 47 48 48
56 56 56 56 57 57 57 57 56 52 54 53 53 52 53 53 52 52 51 51 51 50 51 50 50 48 47 46 45 44 44 43 43 43 44 43 43 43 44 44 44 45 46
55 55 55 55 55 56 57 56 54 53 52 51 51 51 51 51 50 50 50 50 50 49 49 49 48 46 44 42 42 41 37 34 41 40 43 43 42 42 42 43 43 43 43
54 53 53 52 52 52 53 53 52 51 50 50 50 50 50 50 50 50 50 50 49 49 48 48 47 46 44 43 41 36 34 33 37 36 41 42 42 42 43 42 43 43 43
Lifted_Index
-3 -3 -3 -4 -4 -4 -3 -3 -3 -4 -4 -4 -5 -5 -5 -5 -5 -6 -6 -6 -5 -5 -4 -4 -3 -3 -2 -2 -1 -0 -0 1 2 3 4 5 6 6 5 4 3 3 2
-4 -4 -4 -4 -4 -4 -4 -4 -4 -4 -4 -4 -5 -5 -5 -5 -5 -6 -6 -6 -5 -4 -4 -3 -2 -2 -2 -2 -1 -0 0 1 2 3 5 5 6 6 6 5 5 4 3
-4 -5 -4 -4 -4 -4 -4 -4 -4 -4 -4 -4 -5 -5 -5 -5 -6 -6 -6 -6 -5 -4 -3 -2 -2 -2 -2 -1 -0 0 0 1 3 4 5 6 6 6 6 6 6 5 4
-5 -5 -5 -5 -5 -5 -4 -4 -4 -4 -4 -4 -4 -4 -5 -5 -6 -6 -6 -6 -5 -4 -3 -2 -2 -2 -1 -1 -0 1 1 2 4 5 5 6 6 5 6 6 6 6 5
-5 -5 -5 -5 -5 -5 -5 -4 -4 -4 -4 -4 -4 -4 -5 -5 -6 -6 -6 -6 -5 -4 -3 -2 -1 -1 -1 -1 0 1 2 3 4 5 5 6 6 5 5 5 6 6 6
-5 -5 -5 -5 -5 -6 -5 -5 -5 -5 -5 -5 -5 -5 -5 -6 -6 -6 -6 -5 -5 -4 -3 -2 -1 -1 -1 -0 1 2 3 4 5 5 5 5 6 6 5 5 5 5 5
-3 -3 -3 -4 -4 -5 -6 -6 -5 -5 -5 -5 -5 -5 -6 -6 -6 -6 -6 -5 -4 -4 -3 -1 -1 -1 -1 -0 1 3 4 4 5 5 5 5 6 6 6 5 5 5 4
-0 -1 -1 -1 -2 -3 -4 -5 -6 -6 -6 -6 -6 -6 -6 -6 -7 -7 -6 -5 -4 -4 -2 -1 -0 -0 -0 0 1 3 4 4 5 4 4 5 5 6 5 5 5 4 4
2 1 1 1 1 0 -1 -3 -5 -6 -6 -6 -6 -6 -6 -6 -6 -6 -6 -5 -4 -4 -3 -1 -0 0 0 1 1 3 4 4 4 4 4 4 5 5 5 5 5 5 5
3 2 2 2 3 2 1 -1 -2 -4 -6 -6 -6 -6 -6 -6 -6 -6 -5 -5 -4 -4 -3 -1 -0 0 1 1 1 2 4 4 4 4 4 4 4 5 5 5 5 6 6
3 3 3 3 3 2 2 1 -0 -2 -4 -5 -5 -5 -5 -5 -5 -4 -3 -4 -4 -4 -3 -1 -0 1 1 1 1 3 4 5 5 4 4 4 4 5 5 5 6 6 6
4 4 3 3 3 2 2 2 1 -1 -2 -3 -4 -4 -4 -4 -3 -2 -1 -2 -3 -3 -3 -2 -1 0 1 1 2 3 4 5 5 5 4 4 4 5 5 5 6 6 6
4 4 4 3 2 2 3 2 1 0 -1 -2 -2 -3 -2 -2 -1 -1 1 1 -1 -2 -3 -3 -2 0 1 1 1 2 4 5 5 5 5 5 4 5 5 5 5 5 5
5 4 4 3 2 2 2 3 2 1 -0 -1 -2 -2 -1 -1 0 1 2 3 1 -1 -3 -3 -2 -0 0 0 1 1 3 4 5 5 5 5 5 5 5 5 5 5 5
5 4 4 3 3 2 2 2 2 2 1 -0 -1 -1 -1 -0 0 1 3 3 2 -0 -2 -2 -1 0 1 0 0 1 2 4 5 5 5 5 5 5 5 5 5 5 5
5 4 4 4 3 2 2 2 2 2 1 0 -0 -1 -0 -0 0 1 2 3 2 1 -1 -1 -0 1 1 1 1 1 2 3 4 4 4 4 4 4 5 5 5 5 5
4 3 3 3 3 2 2 2 2 2 2 1 0 -0 0 0 0 1 2 2 2 2 1 0 1 1 1 1 1 1 2 3 4 3 3 3 4 4 4 4 5 5 5
2 1 1 1 2 1 1 1 1 2 2 1 0 0 0 1 1 1 1 1 2 2 2 2 1 1 2 2 1 2 3 3 3 3 3 3 3 3 4 4 4 4 4
0 0 -0 -0 -0 -0 0 1 1 2 2 2 0 -0 0 1 0 0 0 1 1 2 2 2 2 2 2 1 1 2 2 2 2 2 3 3 3 3 3 4 4 4 4
0 -0 -1 -1 -2 -2 -1 -1 0 1 2 1 0 -0 -0 -0 -0 -0 -0 0 1 2 2 1 1 1 1 2 2 2 2 2 2 2 2 3 2 2 3 3 3 3 3
0 -0 -1 -1 -2 -2 -2 -2 -1 0 1 0 0 -0 -1 -1 -1 -0 -0 0 1 1 1 1 1 1 2 3 3 3 3 3 3 2 2 2 2 2 3 3 3 3 3
0 0 -1 -1 -2 -2 -3 -2 -1 -1 -1 -1 -0 -0 -1 -1 -0 -0 0 1 2 2 1 1 1 2 3 4 5 5 5 5 4 3 3 3 3 3 3 3 3 3 3
0 -0 -1 -1 -1 -2 -2 -2 -1 -1 -1 -1 -1 -0 -0 -0 0 1 1 2 3 3 2 1 1 2 4 5 6 7 7 7 7 6 6 5 5 5 5 5 4 4 4
-0 -1 -1 -1 -1 -2 -2 -2 -2 -2 -1 -1 -1 -0 -0 0 1 1 2 3 3 3 3 2 2 3 5 6 8 8 9 9 9 9 9 8 8 8 8 8 7 7 7
-1 -1 -1 -1 -2 -2 -2 -2 -2 -2 -2 -1 -1 -0 0 1 2 2 3 4 4 4 4 4 4 5 7 8 9 10 10 11 11 11 11 10 10 10 10 10 10 9 9
-1 -1 -1 -1 -2 -2 -2 -2 -2 -2 -2 -1 -0 0 1 2 3 4 4 4 4 4 5 5 6 7 8 10 10 11 11 12 11 11 11 11 11 11 11 11 10 10 10